Weather History for Delaware, OH

Change the Weather History Date:

Friday, September 13, 2013

  Actual Average Record
Temperature  
Mean Temperature 54 °F -  
Max Temperature 62 °F 75 °F 97 °F (1939)
Min Temperature 46 °F 52 °F 37 °F (1964)
Degree Days  
Heating Degree Days 11    
Growing Degree Days 4 (Base 50)    
Moisture  
Dew Point 47 °F    
Average Humidity 77    
Maximum Humidity 94    
Minimum Humidity 52    
Precipitation  
Precipitation 0.01 in - - ()
Sea Level Pressure  
Sea Level Pressure 30.02 in    
Wind  
Wind Speed 7 mph (NNW)    
Max Wind Speed 14 mph    
Max Gust Speed 20 mph    
Visibility 10 miles    
Events      
Averages and records for this station are not official NWS values.
T = Trace of Precipitation, MM = Missing Value Source: NWS Daily Summary

Daily Weather History Graph

Daily Weather History Graph

Search for Another Location

Airport:

Trip Planner

Search our weather history database for the weather conditions in past years. The results will help you decide how hot, cold, wet, or windy it might be!

Date:

Astronomy

Sep. 13, 2013 Rise Set
Actual Time 7:11 AM EDT 7:44 PM EDT
Civil Twilight 6:44 AM EDT 8:11 PM EDT
Nautical Twilight 6:11 AM EDT 8:43 PM EDT
Astronomical Twilight 5:38 AM EDT 9:16 PM EDT
Moon 3:33 PM EDT (9/13) 12:39 AM EDT (9/13)
Length of Visible Light 13h 27m
Length of Day
12h 32m
First Quarter, 61% of the Moon is Illuminated
Sep 13
First Quarter
Sep 19
Full
Sep 26
Last Quarter
Oct 4
New
Oct 11
First Quarter

Hourly Weather History & Observations

Time (EDT) Temp. Windchill Dew Point Humidity Pressure Visibility Wind Dir Wind Speed Gust Speed Precip Events Conditions
12:15 AM 57.2 °F - 55.4 °F 94% 29.93 in 10.0 mi North 6.9 mph - 0.01 in   Scattered Clouds
12:35 AM 57.2 °F - 55.4 °F 94% 29.94 in 10.0 mi North 8.1 mph - 0.01 in   Clear
12:55 AM 57.2 °F - 55.4 °F 94% 29.94 in 10.0 mi NNW 6.9 mph - 0.01 in   Mostly Cloudy
1:15 AM 55.4 °F - 53.6 °F 94% 29.94 in 10.0 mi NNW 4.6 mph - N/A   Scattered Clouds
1:35 AM 55.4 °F - 53.6 °F 94% 29.94 in 10.0 mi NW 5.8 mph - N/A   Mostly Cloudy
1:55 AM 55.4 °F - 53.6 °F 94% 29.95 in 7.0 mi NNW 4.6 mph - N/A   Mostly Cloudy
2:15 AM 55.4 °F - 53.6 °F 94% 29.95 in 7.0 mi NNW 6.9 mph - N/A   Scattered Clouds
2:35 AM 55.4 °F - 53.6 °F 94% 29.95 in 10.0 mi NNW 8.1 mph - N/A   Clear
2:55 AM 55.4 °F - 51.8 °F 88% 29.95 in 10.0 mi NNW 8.1 mph - N/A   Clear
3:15 AM 53.6 °F - 51.8 °F 94% 29.95 in 10.0 mi NNW 6.9 mph - N/A   Clear
3:36 AM 53.6 °F - 51.8 °F 94% 29.96 in 10.0 mi NNW 6.9 mph - N/A   Clear
3:55 AM 53.6 °F - 50.0 °F 88% 29.97 in 10.0 mi NNW 6.9 mph - N/A   Clear
4:15 AM 51.8 °F - 50.0 °F 94% 29.97 in 10.0 mi NNW 6.9 mph - N/A   Clear
4:36 AM 51.8 °F - 50.0 °F 94% 29.98 in 10.0 mi NW 5.8 mph - N/A   Clear
4:55 AM 51.8 °F - 48.2 °F 88% 29.98 in 10.0 mi NW 5.8 mph - N/A   Clear
5:15 AM 50.0 °F - 48.2 °F 94% 29.98 in 10.0 mi NW 6.9 mph - N/A   Clear
5:36 AM 50.0 °F - 48.2 °F 94% 29.98 in 10.0 mi NW 5.8 mph - N/A   Clear
5:55 AM 50.0 °F - 46.4 °F 87% 29.98 in 10.0 mi NNW 6.9 mph - N/A   Clear
6:15 AM 50.0 °F - 46.4 °F 87% 29.99 in 10.0 mi NW 8.1 mph - N/A   Clear
6:35 AM 50.0 °F - 46.4 °F 87% 29.99 in 10.0 mi NW 5.8 mph - N/A   Clear
6:55 AM 48.2 °F - 46.4 °F 93% 30.00 in 10.0 mi NW 6.9 mph - N/A   Clear
7:15 AM 48.2 °F - 46.4 °F 93% 30.00 in 10.0 mi NNW 5.8 mph - N/A   Clear
7:36 AM 48.2 °F - 44.6 °F 87% 30.01 in 10.0 mi NW 5.8 mph - N/A   Clear
7:55 AM 50.0 °F - 46.4 °F 87% 30.01 in 10.0 mi NW 6.9 mph - N/A   Clear
8:15 AM 50.0 °F - 46.4 °F 87% 30.01 in 10.0 mi NNW 5.8 mph - N/A   Clear
8:35 AM 51.8 °F - 46.4 °F 82% 30.01 in 10.0 mi NW 9.2 mph - N/A   Clear
8:55 AM 51.8 °F - 46.4 °F 82% 30.01 in 10.0 mi NNW 9.2 mph - N/A   Clear
9:15 AM 53.6 °F - 46.4 °F 77% 30.01 in 10.0 mi NNW 8.1 mph - N/A   Clear
9:35 AM 53.6 °F - 46.4 °F 77% 30.01 in 10.0 mi NNW 9.2 mph 19.6 mph N/A   Clear
9:55 AM 55.4 °F - 46.4 °F 72% 30.02 in 10.0 mi NNW 13.8 mph 18.4 mph N/A   Clear
10:15 AM 55.4 °F - 46.4 °F 72% 30.03 in 10.0 mi North 12.7 mph 17.3 mph N/A   Scattered Clouds
10:35 AM 57.2 °F - 48.2 °F 72% 30.03 in 10.0 mi North 10.4 mph - N/A   Scattered Clouds
10:55 AM 59.0 °F - 46.4 °F 63% 30.03 in 10.0 mi NNW 9.2 mph 17.3 mph N/A   Scattered Clouds
11:15 AM 59.0 °F - 46.4 °F 63% 30.03 in 10.0 mi NNW 9.2 mph - N/A   Mostly Cloudy
11:35 AM 59.0 °F - 46.4 °F 63% 30.03 in 10.0 mi NW 9.2 mph - N/A   Mostly Cloudy
11:55 AM 60.8 °F - 46.4 °F 59% 30.03 in 10.0 mi North 12.7 mph - N/A   Scattered Clouds
12:15 PM 60.8 °F - 46.4 °F 59% 30.03 in 10.0 mi NW 9.2 mph 17.3 mph N/A   Scattered Clouds
12:35 PM 60.8 °F - 44.6 °F 55% 30.03 in 10.0 mi NNW 10.4 mph 16.1 mph N/A   Mostly Cloudy
12:55 PM 59.0 °F - 44.6 °F 59% 30.04 in 10.0 mi NNW 6.9 mph - N/A   Overcast
1:15 PM 59.0 °F - 46.4 °F 63% 30.05 in 10.0 mi NNW 10.4 mph - N/A   Overcast
1:35 PM 59.0 °F - 46.4 °F 63% 30.04 in 10.0 mi North 10.4 mph 17.3 mph N/A   Overcast
1:55 PM 59.0 °F - 46.4 °F 63% 30.04 in 10.0 mi North 11.5 mph 18.4 mph N/A   Overcast
2:16 PM 59.0 °F - 46.4 °F 63% 30.04 in 10.0 mi NNW 9.2 mph - N/A   Overcast
2:35 PM 60.8 °F - 46.4 °F 59% 30.03 in 10.0 mi North 8.1 mph - N/A   Overcast
2:55 PM 62.6 °F - 46.4 °F 55% 30.03 in 10.0 mi NNW 6.9 mph - N/A   Overcast
3:16 PM 62.6 °F - 44.6 °F 52% 30.03 in 10.0 mi NNW 10.4 mph 17.3 mph N/A   Overcast
3:35 PM 60.8 °F - 46.4 °F 59% 30.02 in 10.0 mi NNW 9.2 mph - N/A   Overcast
3:55 PM 60.8 °F - 44.6 °F 55% 30.03 in 10.0 mi North 10.4 mph - N/A   Overcast
4:16 PM 60.8 °F - 44.6 °F 55% 30.03 in 10.0 mi North 9.2 mph 16.1 mph N/A   Overcast
4:35 PM 60.8 °F - 46.4 °F 59% 30.03 in 10.0 mi North 10.4 mph - N/A   Overcast
4:55 PM 60.8 °F - 46.4 °F 59% 30.03 in 10.0 mi NNW 6.9 mph - N/A   Overcast
5:16 PM 59.0 °F - 44.6 °F 59% 30.04 in 10.0 mi NNW 9.2 mph - N/A   Overcast
5:35 PM 59.0 °F - 44.6 °F 59% 30.04 in 10.0 mi North 6.9 mph - N/A   Overcast
5:55 PM 59.0 °F - 44.6 °F 59% 30.04 in 10.0 mi NNW 8.1 mph - N/A   Overcast
6:16 PM 59.0 °F - 44.6 °F 59% 30.04 in 10.0 mi North 9.2 mph - N/A   Overcast
6:35 PM 59.0 °F - 42.8 °F 55% 30.05 in 10.0 mi North 9.2 mph - N/A   Overcast
6:55 PM 57.2 °F - 44.6 °F 63% 30.06 in 10.0 mi North 6.9 mph - N/A   Overcast
7:16 PM 55.4 °F - 44.6 °F 67% 30.06 in 10.0 mi North 4.6 mph - N/A   Overcast
7:35 PM 55.4 °F - 44.6 °F 67% 30.07 in 10.0 mi NNE 6.9 mph - N/A   Overcast
7:55 PM 53.6 °F - 42.8 °F 67% 30.07 in 10.0 mi NNE 8.1 mph - N/A   Mostly Cloudy
8:16 PM 53.6 °F - 42.8 °F 67% 30.07 in 10.0 mi North 5.8 mph - N/A   Scattered Clouds
8:35 PM 51.8 °F - 44.6 °F 76% 30.08 in 10.0 mi North 4.6 mph - N/A   Clear
8:55 PM 50.0 °F - 44.6 °F 82% 30.09 in 10.0 mi North 4.6 mph - N/A   Clear
9:16 PM 50.0 °F - 44.6 °F 82% 30.09 in 10.0 mi North 4.6 mph - N/A   Clear
9:35 PM 48.2 °F - 44.6 °F 87% 30.10 in 10.0 mi North 3.5 mph - N/A   Clear
9:55 PM 46.4 °F - 44.6 °F 93% 30.10 in 10.0 mi Calm Calm - N/A   Clear
10:15 PM 46.4 °F 45.2 °F 44.6 °F 93% 30.10 in 10.0 mi NNW 3.5 mph - N/A   Clear
10:35 PM 46.4 °F 45.2 °F 44.6 °F 93% 30.10 in 10.0 mi NNW 3.5 mph - N/A   Scattered Clouds
10:55 PM 46.4 °F 45.2 °F 44.6 °F 93% 30.11 in 10.0 mi NNW 3.5 mph - N/A   Mostly Cloudy
11:15 PM 48.2 °F - 44.6 °F 87% 30.11 in 10.0 mi North 4.6 mph - N/A   Scattered Clouds
11:35 PM 46.4 °F 44.3 °F 44.6 °F 93% 30.11 in 10.0 mi North 4.6 mph - N/A   Scattered Clouds
11:55 PM 46.4 °F 45.2 °F 44.6 °F 93% 30.11 in 10.0 mi North 3.5 mph - N/A   Clear